Location: Darmstadt
(49.8706°N, 8.6494°E)
Time: 05:38:30
(UTC+01:00)

ATLAS 5 CENTAUR R/B - Pass Details

Date: 31 October 2020
Orbit: 522 x 1136 km, 63.4° (Epoch: 30 November)

Event Time Altitude Azimuth Distance (km) Brightness Sun altitude
Rises 18:31:13 0° 298° (WNW) 2,908 6.0 -14.5°
Reaches altitude 10° 18:34:05 10° 318° (NW) 2,101 4.8 -15.0°
Maximum altitude 18:37:19 18° 1° (N) 1,756 3.8 -15.5°
Enters shadow 18:40:13 12° 37° (NE) 2,190 4.0 -16.0°
